Location: Church Tower
(37.7144°N, 119.6316°W)
Time: 20:37:13
(UTC+00:00)

ATLAS 3B R/B - Pass Details

Date: 15 November 2025
Orbit: 935 x 1258 km, 63.8° (Epoch: 08 December)

Event Time Altitude Azimuth Distance (km) Brightness Sun altitude
Rises 12:26:59 0° 202° (SSW) 3,944 5.5 -26.1°
Reaches altitude 10° 12:29:35 10° 200° (SSW) 3,031 4.9 -25.6°
Maximum altitude 12:36:52 71° 118° (ESE) 1,267 3.1 -24.2°
Drops below altitude 10° 12:44:37 10° 36° (NE) 3,224 5.6 -22.6°
Sets 12:47:28 0° 35° (NE) 4,209 6.2 -22.1°
